Regional Weather Roundup
Issued by NWS Spokane, WA

Home | Current Version | Previous Version | Text Only | Print | Product List | Glossary On
Versions: 1 2 3 4 5 6 7 8 9 10 11 12 13 14 15 16 17 18 19 20 21 22 23 24 25 26 27 28 29 30 31 32 33 34 35 36 37 38 39 40 41 42 43 44 45 46 47 48 49 50
000
NZUS01 KOTX 291705
RWROTX
EASTERN WASHINGTON/NORTHERN IDAHO ROUNDUP
NATIONAL WEATHER SERVICE, SPOKANE WA
900 AM PST THU JAN 29 2015

Note: "fair" indicated few or no clouds below 12,000 feet with no
significant weather and/or obstructions to visibility.

...NORTHEAST WASHINGTON AND NORTHERN IDAHO PANHANDLE...

CITY           SKY/WX    TMP DP  RH WIND       PRES   REMARKS
SPOKANE INTL   FOG       31  31 100 N7        30.42S VSB 1/8 WCI  24
SPOKANE DOWNTO CLOUDY    34  31  88 CALM      30.45S
COEUR D ALENE  CLOUDY    34  28  80 NE10      30.43R WCI  26
DEER PARK      MOSUNNY   27  27 100 CALM      30.44S
SANDPOINT      CLOUDY    32  32 100 CALM      30.47R FOG
BONNERS FERRY  CLOUDY    32  28  86 CALM      30.46S

...SOUTHEAST WASHINGTON AND SOUTHERN IDAHO PANHANDLE...

CITY           SKY/WX    TMP DP  RH WIND       PRES   REMARKS
WALLA WALLA    CLOUDY    36  33  89 S3        30.46R FOG
PULLMAN/MOSCOW PTSUNNY   37  32  82 E8        30.40S
LEWISTON       FOG       32  32 100 CALM      30.44S VSB 1/2
LOWELL           N/A     34  30  85 CALM      30.51F

...COLUMBIA BASIN...

CITY           SKY/WX    TMP DP  RH WIND       PRES   REMARKS
EPHRATA        CLOUDY    37  33  85 N7        30.46R
MOSES LAKE     CLOUDY    36  33  89 NE6       30.47S
TRI CITIES     CLOUDY    38  36  92 W3        30.50S
HERMISTON      FOG       37  36  96 CALM      30.48S VSB 1
PENDLETON      CLOUDY    34  31  88 NW3       30.44R

...EAST SLOPES CASCADES...

CITY           SKY/WX    TMP DP  RH WIND       PRES   REMARKS
THE DALLES     CLOUDY    41  36  82 E8        30.49S
YAKIMA         CLOUDY    36  33  89 CALM      30.48S FOG
ELLENSBURG     CLOUDY    33  29  85 E3        30.44S FOG
WENATCHEE      CLOUDY    34  30  85 W5        30.49R WCI  30
OMAK           CLOUDY    32  29  88 N6        30.49S WCI  26

...SOUTHERN BRITISH COLUMBIA...

CITY           SKY/WX    TMP DP  RH WIND       PRES   REMARKS

...WESTERN MONTANA...

CITY           SKY/WX    TMP DP  RH WIND       PRES   REMARKS
MISSOULA       PTSUNNY   20  20 100 CALM      30.47S FOG

...NEIGHBORING CITIES...

CITY           SKY/WX    TMP DP  RH WIND       PRES   REMARKS
SEATTLE        MOSUNNY   43  38  82 N10       30.35S



USA.gov is the U.S. government's official web portal to all federal, state and local government web resources and services.